Overview Statistics Trail Chart Weather Telemetry Raw packets
 

This is the latest recevied weather packets stored in our database for station/object W1HVD. If no packets are shown the sender has not sent any weather packets the latest 10 day(s).

<< 50 51 52 53 54 55 56 >>
Time Temp. Humidity Pressure Rain* Wind** Luminosity Snow
1777334841 11.67° C 60% 1024.5 hPa 0 mm - 0 W/m² -
1777334539 11.67° C 59% 1024.5 hPa 0 mm - 0 W/m² -
1777334235 12.22° C 58% 1024.4 hPa 0 mm - 0 W/m² -
1777333934 12.22° C 57% 1024.5 hPa 0 mm - 0 W/m² -
1777333632 12.78° C 56% 1024.4 hPa 0 mm - 1 W/m² -
1777333327 12.78° C 54% 1024.4 hPa 0 mm - 2 W/m² -
1777333026 13.33° C 52% 1024.2 hPa 0 mm - 3 W/m² -
1777332724 13.33° C 52% 1024.2 hPa 0 mm - 5 W/m² -
1777332420 13.89° C 51% 1024.2 hPa 0 mm - 8 W/m² -
1777332116 13.89° C 50% 1024.2 hPa 0 mm - 10 W/m² -
1777331814 13.89° C 49% 1024.4 hPa 0 mm - 13 W/m² -
1777331511 14.44° C 48% 1024.5 hPa 0 mm - 15 W/m² -
1777331209 14.44° C 49% 1024.6 hPa 0 mm - 18 W/m² -
1777330906 14.44° C 47% 1024.5 hPa 0 mm - 20 W/m² -
1777330603 14.44° C 47% 1024.6 hPa 0 mm - 22 W/m² -
1777330300 15° C 47% 1024.6 hPa 0 mm - 24 W/m² -
1777329997 15° C 45% 1024.4 hPa 0 mm - 25 W/m² -
1777329697 15° C 45% 1024.5 hPa 0 mm - 27 W/m² -
1777329394 15.56° C 43% 1024.5 hPa 0 mm - 28 W/m² -
1777329092 15.56° C 44% 1024.5 hPa 0 mm - 30 W/m² -
1777328789 15.56° C 43% 1024.5 hPa 0 mm - 31 W/m² -
1777328486 16.11° C 43% 1024.6 hPa 0 mm - 36 W/m² -
1777328185 16.11° C 42% 1024.3 hPa 0 mm - 62 W/m² -
1777327883 16.67° C 42% 1024.4 hPa 0 mm - 59 W/m² -
1777327581 16.67° C 41% 1024.4 hPa 0 mm - 65 W/m² -

* Rain latest hour (hover to see other rain measurements)
** Current wind speed in m/s (hover to see current wind gust speed)